Weather History for Laramie, WY

Change the Weather History Date:

Wednesday, July 17, 2013

  Actual Average Record
Temperature  
Mean Temperature 69 °F 65 °F  
Max Temperature 85 °F 81 °F 90 °F (1977)
Min Temperature 53 °F 49 °F 41 °F (1992)
Degree Days  
Heating Degree Days 0 2  
Month to date heating degree days 9 44  
Since 1 June heating degree days 112 285  
Since 1 July heating degree days 9 44  
Cooling Degree Days 4 1  
Month to date cooling degree days 45 17  
Year to date cooling degree days 81 24  
Since 1 June cooling degree days 81 24  
Growing Degree Days 18 (Base 50)    
Moisture  
Dew Point 49 °F    
Average Humidity 61    
Maximum Humidity 93    
Minimum Humidity 28    
Precipitation  
Precipitation 0.00 in 0.05 in 0.41 in (2000)
Month to date precipitation 1.29 0.73  
Year to date precipitation 4.70 6.22  
Sea Level Pressure  
Sea Level Pressure 30.01 in    
Wind  
Wind Speed 12 mph (SSE)    
Max Wind Speed 21 mph    
Max Gust Speed 26 mph    
Visibility 10 miles    
Events      
T = Trace of Precipitation, MM = Missing Value Source: NWS Daily Summary

Daily Weather History Graph

Daily Weather History Graph

Search for Another Location

Airport:

Trip Planner

Search our weather history database for the weather conditions in past years. The results will help you decide how hot, cold, wet, or windy it might be!

Date:

Astronomy

Jul. 17, 2013 Rise Set
Actual Time 5:44 AM MDT 8:32 PM MDT
Civil Twilight 5:11 AM MDT 9:05 PM MDT
Nautical Twilight 4:30 AM MDT 9:46 PM MDT
Astronomical Twilight 3:43 AM MDT 10:33 PM MDT
Moon 3:24 PM MDT (7/17) 12:54 AM MDT (7/17)
Length of Visible Light 15h 53m
Length of Day
14h 48m
Waxing Gibbous, 68% of the Moon is Illuminated
Jul 17
Waxing Gibbous
Jul 22
Full
Jul 29
Last Quarter
Aug 6
New
Aug 14
First Quarter

Hourly Weather History & Observations

Time (MDT) Temp. Dew Point Humidity Pressure Visibility Wind Dir Wind Speed Gust Speed Precip Events Conditions
12:53 AM 57.0 °F 50.0 °F 77% 30.01 in 10.0 mi SE 19.6 mph 28.8 mph N/A   Clear
1:53 AM 55.0 °F 51.1 °F 86% 30.00 in 10.0 mi SSE 15.0 mph - N/A   Clear
2:26 AM 55.4 °F 51.8 °F 88% 30.33 in 10.0 mi SSE 17.3 mph 24.2 mph N/A   Mostly Cloudy
2:53 AM 55.9 °F 52.0 °F 87% 30.00 in 10.0 mi SSE 17.3 mph - N/A   Mostly Cloudy
3:11 AM 55.4 °F 51.8 °F 88% 30.33 in 10.0 mi SSE 17.3 mph - N/A   Partly Cloudy
3:53 AM 55.0 °F 51.1 °F 86% 29.99 in 8.0 mi SSE 17.3 mph - N/A   Clear
4:53 AM 54.0 °F 51.1 °F 90% 29.99 in 7.0 mi SSE 15.0 mph - N/A   Clear
5:53 AM 53.1 °F 51.1 °F 93% 30.01 in 5.0 mi South 11.5 mph - N/A   Clear
6:53 AM 55.0 °F 51.1 °F 86% 30.02 in 7.0 mi SSE 15.0 mph - N/A   Clear
7:53 AM 61.0 °F 51.1 °F 70% 30.02 in 10.0 mi South 10.4 mph - N/A   Clear
8:53 AM 66.9 °F 50.0 °F 54% 30.02 in 10.0 mi South 10.4 mph - N/A   Clear
9:53 AM 72.0 °F 48.0 °F 43% 30.01 in 10.0 mi SSE 5.8 mph - N/A   Clear
10:53 AM 75.0 °F 48.0 °F 38% 30.01 in 10.0 mi Variable 4.6 mph - N/A   Clear
11:53 AM 78.1 °F 46.9 °F 33% 30.00 in 10.0 mi East 5.8 mph - N/A   Clear
12:53 PM 80.1 °F 46.9 °F 31% 29.98 in 10.0 mi East 11.5 mph - N/A   Clear
1:53 PM 82.9 °F 46.0 °F 27% 29.97 in 10.0 mi Calm Calm - N/A   Clear
2:53 PM 84.0 °F 48.0 °F 28% 29.94 in 10.0 mi NE 10.4 mph 16.1 mph N/A   Clear
3:53 PM 79.0 °F 48.9 °F 35% 29.98 in 10.0 mi SSE 18.4 mph 26.5 mph N/A   Mostly Cloudy
4:53 PM 80.1 °F 48.9 °F 34% 29.97 in 10.0 mi SSE 15.0 mph 21.9 mph N/A   Clear
5:53 PM 80.1 °F 46.9 °F 31% 29.96 in 10.0 mi SE 15.0 mph - N/A   Clear
6:53 PM 78.1 °F 46.9 °F 33% 29.95 in 10.0 mi SE 15.0 mph - N/A   Clear
7:53 PM 73.9 °F 45.0 °F 35% 29.95 in 10.0 mi SE 15.0 mph - N/A   Clear
8:53 PM 71.1 °F 46.9 °F 42% 29.94 in 10.0 mi SE 11.5 mph 20.7 mph N/A   Clear
9:53 PM 69.1 °F 48.0 °F 47% 29.93 in 10.0 mi SSE 10.4 mph - N/A   Clear
10:53 PM 69.1 °F 45.0 °F 42% 29.93 in 10.0 mi South 10.4 mph - N/A   Clear
11:53 PM 64.9 °F 46.0 °F 50% 29.93 in 10.0 mi South 9.2 mph - N/A   Clear